Location: Berg
(48.4333°N, 13.9167°E)
Time: 06:13:58
(UTC+00:00)

USA 186 - Pass Details

Date: 18 September 2020
Orbit: 261 x 425 km, 96.9° (Epoch: 12 October)

Event Time Altitude Azimuth Distance (km) Brightness Sun altitude
Exits shadow 18:49:23 16° 184° (S) 1,152 3.8 -16.9°
Maximum altitude 18:51:43 55° 261° (W) 499 2.4 -17.2°
Drops below altitude 10° 18:54:55 10° 340° (NNW) 1,510 5.2 -17.7°
Sets 18:57:00 0° 345° (NNW) 2,395 6.2 -18.0°
